Regional Weather Roundup
Issued by NWS

Home | Current Version | Previous Version | Graphics & Text | Print | Product List | Glossary On
Versions: 1 2 3 4 5 6 7 8 9 10 11 12 13 14 15 16 17 18 19 20 21 22 23 24 25 26 27
000
ASUS45 KTFX 221610
RWRMT
MONTANA REGIONAL WEATHER ROUNDUP
NATIONAL WEATHER SERVICE GREAT FALLS MT
900 AM MST SUN JAN 22 2017

NOTE: "FAIR" INDICATES FEW OR NO CLOUDS BELOW 12000 FEET WITH NO
SIGNIFICANT WEATHER AND/OR OBSTRUCTIONS TO VISIBILITY.

MTZ001>007-043-221700-
WEST OF THE DIVIDE

CITY           SKY/WX    TMP DP  RH WIND       PRES   REMARKS
KALISPELL      LGT SNOW  22  21  96 W5        29.81S VSB 1
MISSOULA       CLEAR     19  17  92 CALM      29.81F
BUTTE          CLEAR      3  -1  83 CALM      29.80S
MULLAN PASS    FOG       24  21  88 SE7       29.64S VSB 1/2 WCI  16
ANACONDA         N/A     21  12  68 S8        29.80S WCI  12
DEER LODGE       N/A     21  16  79 SE5       29.82S
EUREKA           N/A     27  25  93 CALM      29.81S
HAMILTON         N/A     18  16  93 CALM      29.79S VSB 0
RONAN            N/A     25  23  91 CALM      29.83F VSB 0
$$

MTZ008-052>055-221700-
SOUTHWEST MONTANA

CITY           SKY/WX    TMP DP  RH WIND       PRES   REMARKS
BOZEMAN        CLOUDY     9   6  88 S5        29.85R
DILLON         CLOUDY   N/A N/A N/A S8        29.83R
W YELLOWSTONE  SNOW      23  19  86 CALM      29.86S VSB 1/2
ENNIS          CLEAR     19  12  73 S10       29.89R WCI   8
TWIN BRIDGES     N/A      6  -2  70 NE6       29.85R WCI  -4
$$

MTZ009-010-012-014-046-048-049-054-221700-
EAST SLOPES AND CENTRAL MONTANA

CITY           SKY/WX    TMP DP  RH WIND       PRES   REMARKS
CUT BANK       FOG       23  22  96 N5        29.80S VSB 1
GREAT FALLS    CLOUDY    25  20  81 E6        29.82R WCI  18
MALMSTROM AFB  CLOUDY    23  23 100 CALM      29.84R
HELENA         PTCLDY     9   7  92 CALM      29.85S
AUGUSTA          N/A     19  16  89 E5        29.78S
BOWMANS CRNR     N/A     21  16  81 SW9       29.77R WCI  10
CHOTEAU        FOG       19  18  93 E5        29.83R VSB 0
CONRAD           N/A     22  21  96 W3        29.86R
POWER          FOG       18  17  95 NW5       29.81R VSB 1/8
RAYNESFORD       N/A     21  18  88 CALM      29.81R
ULM              N/A     20  19  92 MISG      29.82R
$$

MTZ011-013-016-021-045-047-050-051-221700-
NORTH CENTRAL MONTANA

CITY           SKY/WX    TMP DP  RH WIND       PRES   REMARKS
HAVRE          CLOUDY    27  27 100 SW9       29.86R FOG     WCI  18
LEWISTOWN      CLEAR     20  15  81 E5        29.81R
CHINOOK          N/A     28  28 100 W6        29.86R WCI  22
DENTON         FOG       22  21  97 N6        29.80R VSB 1/16WCI  14
FORT BENTON      N/A     27  25  93 MISG      29.87S
GEYSER         MOCLDY    22  21  93 E3        29.80R
GRASS RANGE      N/A     28  21  74 SW18      29.77R WCI  15
JUDITH GAP       N/A     30  15  53 W5        29.79R
ROY              N/A     26  21  83 MISG      29.79R
STANFORD       MOCLDY    26  19  74 W5        29.79R
WINIFRED         N/A     22  21  98 W7        29.82R FOG     WCI  13
$$

MTZ017>020-022>027-061-062-221700-
NORTHEAST MONTANA

CITY           SKY/WX    TMP DP  RH WIND       PRES   REMARKS
GLASGOW        CLOUDY    27  25  92 W18       29.82R WCI  14
JORDAN           N/A     26  24  92 NW6       29.84R WCI  19
SIDNEY         CLOUDY    29  26  89 W10       29.82R WCI  20
WOLF POINT     CLOUDY    30  25  81 W9        29.83R WCI  22
PLENTYWOOD       N/A     28  27  93 W12       29.76S WCI  18
POPLAR           N/A     27  25  93 W10       29.83R WCI  17
SCOBEY           N/A     28  21  75 NW10      29.77R WCI  19
$$

MTZ028>42-056>058-221700-
SOUTHCENTRAL AND SOUTHEAST MONTANA

CITY           SKY/WX    TMP DP  RH WIND       PRES   REMARKS
BAKER          CLOUDY    24  22  91 W15       29.81R WCI  11
BILLINGS       PTCLDY    26  17  68 SW18      29.84R WCI  13
LIVINGSTON     CLEAR     32  16  51 W16G23    29.81S WCI  21
MILES CITY     CLOUDY    16  13  88 CALM      29.87R FOG
BIG TIMBER     CLEAR     32  18  55 W12       29.84R WCI  23
EKALAKA          N/A     23  17  78 SW7       29.80R WCI  15
FORSYTH          N/A     19  18  93 SW3       29.85R
HARLOWTON        N/A     25  18  72 W9        29.81R WCI  16
LAUREL           N/A     21   9  60 SW8       29.84R WCI  11
$$

REGIONAL REPORTS...DAKOTAS

CITY           SKY/WX    TMP DP  RH WIND       PRES   REMARKS
WILLISTON      CLOUDY    29  26  89 W9        29.79R WCI  20
MINOT          CLOUDY    31  28  89 W17       29.73R WCI  19
DICKINSON      FOG       25  23  92 NW14      29.77R VSB 1   WCI  13
BEACH          CLOUDY    25  25 100 W14       29.83R FOG     WCI  13
CROSBY         CLOUDY    28  28 100 NW5       29.77R FOG
TIOGA          CLOUDY    28  28 100 W16       29.76R FOG     WCI  17
WATFORD CITY   CLOUDY    27  27 100 W10       29.79S WCI  17
BISMARCK       CLOUDY    30  27  88 W9        29.79R FOG     WCI  22
GRAND FORKS    CLOUDY    35  30  82 W7        29.72R WCI  29
FARGO          CLOUDY    35  32  88 W8        29.73R FOG     WCI  29
BUFFALO SD       N/A     21  17  84 W7        29.74R WCI  12
RAPID CITY     CLOUDY    37  24  59 NW6       29.83R
$$

REGIONAL REPORTS...WYOMING/IDAHO/WASHINGTON

CITY           SKY/WX    TMP DP  RH WIND       PRES   REMARKS
GILLETTE       CLOUDY    30  21  69 W6        29.84R WCI  24
SHERIDAN       SUNNY     25  16  68 S5        29.85R
BUFFALO WY     SUNNY     28  17  63 VRB3      29.84R
CODY           SUNNY     33  14  45 W10       29.85R WCI  25
YELLOWSTONE LA   N/A     15  13  91 CALM      29.87R
IDAHO FALLS    CLOUDY    20  19  96 N6        29.91F WCI  12
SALMON         CLOUDY     9   7  92 CALM      29.85F
BOISE          CLOUDY    38  25  59 SE15      29.67F WCI  29
SPOKANE        PTCLDY    33  31  92 E14       29.64F WCI  23
$$

REGIONAL REPORTS...ALBERTA

CITY           SKY/WX    TMP DP  RH WIND       PRES   REMARKS
EDMONTON       CLOUDY    16   9  73 NE3       29.93R
CALGARY        CLOUDY    21  19  93 CALM      29.82R FOG
LETHBRIDGE     CLOUDY    25  25 100 SW3       29.84R FOG
MEDICINE HAT   LGT SNOW  27  27 100 W6        29.85S FOG     WCI  20
WATERTON GATE    N/A     21  21 100 NE1         N/A
CARDSTON         N/A     23  21  93 N1          N/A
MILK RIVER       N/A     25  25 100 NW6         N/A  WCI  18
$$

REGIONAL REPORTS...SASKATCHEWAN

CITY           SKY/WX    TMP DP  RH WIND       PRES   REMARKS
SWIFT CURRENT  FLURRIES  23  23 100 NW14      29.77R WCI  11
REGINA         CLOUDY    27  23  86 NW12      29.73S WCI  16
SASKATOON      FLURRIES  21  18  86 N17       29.80R WCI   7
CYPRESS HILLS    N/A     23  19  86 NW5         N/A
VAL MARIE        N/A     27  25  93 NW7         N/A  WCI  19
ROCKGLEN         N/A     25  23  93 NW10        N/A  WCI  15
ASSINIBOIA       N/A     16  14  93 N3          N/A
$$




USA.gov is the U.S. government's official web portal to all federal, state and local government web resources and services.